Вернуться в каталог

YUNYAO-1 58

АктивенПогодаSSO
NORAD 63294·PAYLOAD·🇨🇳 China
Это название спутника еще не подтверждено официальными источниками.

Запущен Mar 17, 2025 с Jiuquan Satellite Launch Center

Loading…

Ближайшие Пролёты (ближайшие 24 часа)

TLE

СвежийSource: Space-Track

Эпоха: Sep 14, 2026, 20:20 UTC

1 63294U 25055D   26257.84723566  .00007285  00000-0  36452-3 0  9999
2 63294  97.6642  38.5749 0013694 183.8220 176.2911 15.17646268 82602

Отслеживайте YUNYAO-1 58 в реальном времени с AllMySat

Download on the App Store